Regional Weather Roundup
Issued by NWS

Home | Current Version | Previous Version | Graphics & Text | Print | Product List | Glossary On
Versions: 1 2 3 4 5 6 7 8 9 10 11 12 13 14 15 16 17 18 19 20 21 22 23 24 25 26 27 28 29 30 31 32 33 34 35 36 37 38 39 40 41 42 43 44 45 46 47 48 49 50
000
ASUS43 KMPX 232110
RWRMN
WEATHER ROUNDUP FOR MINNESOTA
NATIONAL WEATHER SERVICE TWIN CITIES/CHANHASSEN MN
400 PM CDT SAT JUL 23 2016


NOTE: "FAIR" INDICATES FEW OR NO CLOUDS BELOW 12,000 FEET WITH NO
SIGNIFICANT WEATHER AND/OR OBSTRUCTIONS TO VISIBILITY. N/A MEANS
CURRENT SKY AND/OR WEATHER CONDITIONS ARE NOT AVAILABLE.

MNZ060>063-068>070-232200-
   Twin Cities Metro

CITY           SKY/WX    TMP DP  RH WIND       PRES   REMARKS
TWIN CITIES    RAIN      75  69  81 E7        29.85S
ST PAUL        LGT RAIN  74  69  85 VRB7      29.85S
CRYSTAL        RAIN      71  68  90 NE9       29.85F FOG
BLAINE         RAIN      72  72 100 N13G18    29.89R
LAKEVILLE      CLOUDY    75  72  88 SE12G17   29.83F
EDEN PRAIRIE   HVY RAIN  73  71  93 VRB5      29.87R VSB 1/4
LAKEVILLE      CLOUDY    75  72  88 SE12G17   29.83F
SOUTH ST PAUL  LGT RAIN  74  71  90 SE9G16    29.84F
LAKE ELMO      CLOUDY    72  70  94 NW7       29.89R
$$
MNZ001>005-007-008-013>017-022>024-027-028-232200-
   Northwest Minnesota

CITY           SKY/WX    TMP DP  RH WIND       PRES   REMARKS
BEMIDJI        CLOUDY    72  70  94 SE9       29.77F
HALLOCK        CLOUDY    73  68  83 E12       29.71R
ROSEAU         LGT RAIN  66  63  88 NE14      29.74F
WARROAD        LGT RAIN  70  64  83 NE9G22    29.79F
THIEF RVR FALL CLOUDY    71  67  87 E6        29.74S
CROOKSTON      CLOUDY    70  68  94 E8        29.71S
FOSSTON        CLOUDY    77  70  78 E12       29.74F
DETROIT LAKES  MOSUNNY   77  68  73 SE20G26   29.75F
MOORHEAD       CLOUDY    81  70  69 S10G16    29.73F
PARK RAPIDS    CLOUDY    75  69  81 SE13      29.78F
MAHNOMEN       FAIR      77  68  74 SE15G21   29.75R
$$
MNZ006-009>011-018-025>026-232200-
   North Central Minnesota

CITY           SKY/WX    TMP DP  RH WIND       PRES   REMARKS
BAUDETTE       LGT RAIN  73  67  81 W6        29.83R
FLAG ISLAND    LGT RAIN  70  64  83 N3        29.82S
INTL FALLS     CLOUDY    77  64  64 SE10      29.84F
WASKISH        CLOUDY    79  66  65 S7G17     29.82R
BIG FORK       CLOUDY    79  64  61 SE8       29.86R
LONGVILLE      PTSUNNY   79  68  69 S9        29.82F
GRAND RAPIDS   CLOUDY    74  67  78 S12       29.87S
CRANE LAKE     CLOUDY    75  61  60 E3        29.88S
ORR            CLOUDY    77  59  53 SE7       29.83F
COOK           CLOUDY    75  63  64 E3        29.88R
WALKER         FAIR      75  67  76 S12       29.82F
$$
MNZ012-019>021-037-232200-
   Northeast Minnesota

CITY           SKY/WX    TMP DP  RH WIND       PRES   REMARKS
DULUTH         CLOUDY    68  61  78 E13       29.90S
ELY            CLOUDY    73  57  56 E8        29.89F
HIBBING        CLOUDY    73  63  70 SE9       29.88R
EVELETH        CLOUDY    73  60  64 SE7       29.89R
DULUTH HARBOR  CLOUDY    64  61  88 NE10      29.89F
TWO HARBORS    CLOUDY    73  63  68 E15       29.88F
SILVER BAY     CLOUDY    70  61  73 NE9       29.90S
GRAND MARAIS     N/A     64  56  75 NE10      29.90F
G MARAIS ARPRT CLOUDY    72  57  60 NE8       29.96F
$$
MNZ029>031-032-039>041-046>048-054>057-064-232200-
   West Central Minnesota

CITY           SKY/WX    TMP DP  RH WIND       PRES   REMARKS
FERGUS FALLS   CLOUDY    79  70  73 SE15      29.76F
WHEATON        CLOUDY    81  75  83 SE16G22   29.74F
MORRIS         CLOUDY    79  72  78 SE15      29.77F
ALEXANDRIA     CLOUDY    78  69  73 SE16      29.82F
ELBOW LAKE     FAIR      77  71  81 E12G17    29.77F
WADENA         PTSUNNY   73  66  78 SE10      29.81F
GLENWOOD       CLOUDY    75  70  83 SE17G23   29.82F
APPLETON       PTSUNNY   81  72  74 SE17G23   29.77F
BENSON         PTSUNNY   79  70  73 SE16      29.78F
ORTONVILLE     SUNNY     82  73  74 SE13      29.75F
MADISON        MOSUNNY   84  73  70 E13G18    29.77S HX  91
WILLMAR        FAIR      75  75 100 E14       29.82F
$$
MNZ033>034-036-042>043-049>051-058-059-232200-
   Central Minnesota

CITY           SKY/WX    TMP DP  RH WIND       PRES   REMARKS
ST CLOUD       CLOUDY    73  71  93 SE10      29.85F
SAUK CENTRE    MOCLDY    76  70  80 SE14      29.83F
PAYNESVILLE    CLOUDY    74  72  93 E9        29.85S
AITKIN         CLOUDY    73  66  78 SW5       29.83S
PINE RIVER     PTSUNNY   75  70  83 S8        29.85F
BRAINERD       CLOUDY    75  70  84 S9        29.83F
STAPLES        CLOUDY    75  66  73 SE9       29.82F
LONG PRAIRIE   PTSUNNY   73  68  83 E10G16    29.83F
LITTLE FALLS   CLOUDY    70  70 100 SE13      29.83F
LITCHFIELD     MOSUNNY   75  75 100 SE14G23   29.84F
BUFFALO        LGT RAIN  69  67  92 E12G17    29.87F
MAPLE LAKE     CLOUDY    71  70  96 SE8G16    29.85F
HUTCHINSON     CLOUDY    74  72  93 NE10      29.85F
$$
MNZ037-044-045-052-053-232200-
   East Central Minnesota

CITY           SKY/WX    TMP DP  RH WIND       PRES   REMARKS
PRINCETON      LGT RAIN  70  68  94 SE7       29.86F
MORA           LGT RAIN  70  68  94 S6        29.89F
CAMBRIDGE      RAIN      72  66  83 SE12      29.86F
RUSH CITY      CLOUDY    69  66  93 SE10      29.90F
MOOSE LAKE     LGT RAIN  72  68  88 S5        29.86F
HINCKLEY       RAIN      72  72 100 SE10      29.89F
CLOQUET        CLOUDY    70  61  73 E7        29.89F
MCGREGOR       CLOUDY    72  68  88 CALM      29.86R
$$
MNZ071>073-080-081-089-090-097-098-232200-
   Southwest Minnesota

CITY           SKY/WX    TMP DP  RH WIND       PRES   REMARKS
MONTEVIDEO     CLOUDY    81  73  78 SE17      29.80S
GRANITE FALLS  PTSUNNY   83  77  80 E13G20    29.79F HX  92
CANBY          PTSUNNY   86  78  76 SE12      29.77S HX  97
MARSHALL       MOSUNNY   89  76  65 S12       29.76F HX 100
REDWOOD FALLS  PTSUNNY   84  74  71 SE14      29.79S HX  91
OLIVIA         MOSUNNY   79  73  83 E12G17    29.80F
PIPESTONE      SUNNY     90  72  55 S9G17     29.79F HX  96
WINDOM         MOSUNNY   84  73  70 SE8       29.81S HX  91
WORTHINGTON    PTSUNNY   87  77  72 MISG      29.80F HX  99
JACKSON        PTSUNNY   84  73  70 S13G20    29.82F HX  91
TRACY          CLOUDY    86  78  76 SE8       29.78F HX  99
SLAYTON        CLOUDY    88  76  67 SE7       29.81S HX  99
$$
MNZ065>067-074>077-082>085-091>093-232200-
   South Central Minnesota

CITY           SKY/WX    TMP DP  RH WIND       PRES   REMARKS
MANKATO        CLOUDY    79  72  78 SE9       29.84R
NEW ULM        CLOUDY    81  75  83 SE12      29.81F
ST JAMES       MOSUNNY   79  72  78 SE8       29.81F
FAIRMONT       CLOUDY    82  75  78 S16G23    29.80F
GLENCOE        CLOUDY    78  75  91 CALM      29.85S
FARIBAULT      CLOUDY    77  72  83 SE13      29.84F
OWATONNA       CLOUDY    77  72  83 SE13G21   29.83F
WASECA         CLOUDY    77  72  83 SE16G23   29.86S
ALBERT LEA     CLOUDY    73  73 100 SE12      29.85F
$$
MNZ078>079-086>088-094>096-232200-
   Southeast Minnesota

CITY           SKY/WX    TMP DP  RH WIND       PRES   REMARKS
ROCHESTER      CLOUDY    71  70  96 SE16G23   29.87F
RED WING       CLOUDY    75  70  83 SE12G18   29.82F
STANTON        CLOUDY    77  70  78 SE12G21   29.81F
DODGE CENTER   CLOUDY    72  70  94 SE16G23   29.85F
WINONA         LGT RAIN  70  68  94 S7        29.88F
AUSTIN         PTSUNNY   72  70  94 SE12G17   29.85S
PRESTON        LGT RAIN  69  68  94 SE14      29.90F
$$
ABBREVIATIONS USED IN REMARKS
   TC - TEMPERATURES IN CELSIUS
  WCI - WIND CHILL INDEX
   HX - HEAT INDEX
  VSB - VISIBILITY
$$



USA.gov is the U.S. government's official web portal to all federal, state and local government web resources and services.